Location: Brachbach
(49.1847°N, 9.7240°E)
Time: 07:53:55
(UTC+00:00)

FO-29 - Pass Details

Date: 19 March 2026
Orbit: 801 x 1320 km, 98.5° (Epoch: 17 April)

Event Time Altitude Azimuth Distance (km) Brightness Sun altitude
Rises 22:36:33 0° 7° (N) 4,124 13.5 -39.8°
Reaches altitude 10° 22:40:32 10° 346° (NNW) 3,236 12.9 -40.0°
Maximum altitude 22:44:15 15° 316° (NW) 2,944 12.5 -40.1°
Drops below altitude 10° 22:48:03 10° 286° (WNW) 3,330 12.5 -40.3°
Sets 22:52:17 0° 265° (W) 4,320 12.9 -40.4°
